SAS1422 EKCH-ESSA

Flight info

Callsign SAS1422
Flight time 1h 2m
Altitude 37000
Route KEMAX DCT RASMU DCT DETSO N873 ARS T317 ELTOK
Aircraft A320/M-SDE3FGHIRWY/LB1

Departure

Time 2026-04-25 11:44
Airport Copenhagen Kastrup Airport (EKCH)

Arrival

Time 2026-04-25 12:46
Airport Stockholm-Arlanda Airport (ESSA)
Time Latitude Longitude Altitude Speed Heading
2026-04-25 11:25 55.62695 12.64586 17 ft 0 kts 282°
2026-04-25 11:30 55.62695 12.64585 17 ft 0 kts 282°
2026-04-25 11:30 55.62693 12.64603 18 ft 2 kts 307°
2026-04-25 11:30 55.62682 12.64627 19 ft 1 kts 304°
2026-04-25 11:31 55.62678 12.64640 20 ft 1 kts 253°
2026-04-25 11:31 55.62684 12.64664 19 ft 2 kts 243°
2026-04-25 11:31 55.62688 12.64681 20 ft 1 kts 198°
2026-04-25 11:31 55.62694 12.64684 21 ft 0 kts 195°
2026-04-25 11:32 55.62695 12.64684 21 ft 0 kts 195°
2026-04-25 11:35 55.62694 12.64684 21 ft 0 kts 195°
2026-04-25 11:37 55.62693 12.64684 21 ft 1 kts 195°
2026-04-25 11:37 55.62693 12.64683 21 ft 0 kts 195°
2026-04-25 11:38 55.62692 12.64683 21 ft 0 kts 195°
2026-04-25 11:39 55.62691 12.64683 17 ft 0 kts 195°
2026-04-25 11:39 55.62681 12.64678 18 ft 8 kts 192°
2026-04-25 11:39 55.62617 12.64656 17 ft 10 kts 187°
2026-04-25 11:39 55.62545 12.64653 17 ft 10 kts 180°
2026-04-25 11:40 55.62464 12.64667 19 ft 13 kts 169°
2026-04-25 11:40 55.62368 12.64678 17 ft 15 kts 181°
2026-04-25 11:40 55.62289 12.64571 17 ft 16 kts 246°
2026-04-25 11:40 55.62236 12.64408 16 ft 16 kts 209°
2026-04-25 11:41 55.62118 12.64437 17 ft 18 kts 169°
2026-04-25 11:41 55.62000 12.64469 17 ft 17 kts 180°
2026-04-25 11:41 55.61942 12.64308 17 ft 18 kts 261°
2026-04-25 11:41 55.61911 12.64106 20 ft 15 kts 229°
2026-04-25 11:42 55.61800 12.64075 17 ft 18 kts 176°
2026-04-25 11:42 55.61718 12.64084 18 ft 10 kts 176°
2026-04-25 11:42 55.61646 12.64086 21 ft 10 kts 192°
2026-04-25 11:42 55.61582 12.64006 20 ft 14 kts 220°
2026-04-25 11:43 55.61471 12.63838 20 ft 39 kts 222°
2026-04-25 11:43 55.61087 12.63241 21 ft 105 kts 221°
2026-04-25 11:43 55.60404 12.62171 21 ft 154 kts 220°
2026-04-25 11:43 55.59602 12.60925 543 ft 150 kts 227°
2026-04-25 11:44 55.58812 12.59728 1200 ft 150 kts 231°
2026-04-25 11:44 55.58006 12.58487 1672 ft 162 kts 231°
2026-04-25 11:44 55.57108 12.57070 1949 ft 184 kts 230°
2026-04-25 11:44 55.55996 12.55654 2291 ft 213 kts 216°
2026-04-25 11:45 55.54547 12.54589 2806 ft 233 kts 207°
2026-04-25 11:45 55.52957 12.53816 3567 ft 246 kts 193°
2026-04-25 11:45 55.51205 12.54268 4318 ft 268 kts 160°
2026-04-25 11:45 55.49709 12.56404 4873 ft 294 kts 124°
2026-04-25 11:46 55.49038 12.59834 5561 ft 301 kts 88°
2026-04-25 11:46 55.49470 12.63364 6356 ft 293 kts 53°
2026-04-25 11:46 55.50794 12.65939 7138 ft 281 kts 27°
2026-04-25 11:46 55.52439 12.67772 7981 ft 278 kts 19°
2026-04-25 11:47 55.54159 12.69353 8824 ft 281 kts 17°
2026-04-25 11:47 55.55911 12.70937 9696 ft 285 kts 17°
2026-04-25 11:47 55.57719 12.72648 10230 ft 301 kts 18°
2026-04-25 11:47 55.59624 12.74543 10450 ft 326 kts 20°
2026-04-25 11:48 55.61637 12.76657 10767 ft 345 kts 22°
2026-04-25 11:48 55.63698 12.78927 11417 ft 352 kts 23°
2026-04-25 11:48 55.65768 12.81312 12112 ft 359 kts 25°
2026-04-25 11:48 55.67816 12.83928 12799 ft 365 kts 28°
2026-04-25 11:49 55.69842 12.86691 13488 ft 371 kts 29°
2026-04-25 11:49 55.71883 12.89547 14118 ft 375 kts 29°
2026-04-25 11:49 55.73943 12.92431 14709 ft 379 kts 29°
2026-04-25 11:49 55.76026 12.95320 15287 ft 383 kts 28°
2026-04-25 11:50 55.78148 12.98228 15870 ft 386 kts 28°
2026-04-25 11:50 55.80288 13.01136 16449 ft 390 kts 27°
2026-04-25 11:50 55.82460 13.04070 17033 ft 394 kts 27°
2026-04-25 11:50 55.84657 13.07030 17635 ft 398 kts 27°
2026-04-25 11:51 55.86879 13.10028 18211 ft 403 kts 27°
2026-04-25 11:51 55.89124 13.13071 18801 ft 408 kts 27°
2026-04-25 11:51 55.91391 13.16154 19367 ft 412 kts 27°
2026-04-25 11:51 55.93673 13.19271 19964 ft 415 kts 27°
2026-04-25 11:52 55.95971 13.22419 20544 ft 418 kts 27°
2026-04-25 11:52 55.98284 13.25593 21100 ft 421 kts 27°
2026-04-25 11:52 56.00609 13.28786 21626 ft 424 kts 27°
2026-04-25 11:52 56.02960 13.32012 22149 ft 427 kts 27°
2026-04-25 11:53 56.05321 13.35259 22666 ft 429 kts 27°
2026-04-25 11:53 56.07694 13.38534 23168 ft 432 kts 27°
2026-04-25 11:53 56.10083 13.41825 23615 ft 434 kts 26°
2026-04-25 11:53 56.12592 13.44708 24081 ft 424 kts 16°
2026-04-25 11:54 56.15247 13.46856 24465 ft 414 kts
2026-04-25 11:54 56.17972 13.48429 24843 ft 412 kts
2026-04-25 11:54 56.23493 13.51500 25567 ft 418 kts
2026-04-25 11:55 56.26273 13.53049 25913 ft 420 kts
2026-04-25 11:55 56.29111 13.54645 26286 ft 423 kts
2026-04-25 11:55 56.31931 13.56245 26641 ft 426 kts
2026-04-25 11:55 56.34770 13.57866 26995 ft 429 kts
2026-04-25 11:56 56.37625 13.59500 27422 ft 432 kts
2026-04-25 11:56 56.40508 13.61147 27699 ft 437 kts
2026-04-25 11:56 56.43420 13.62807 28023 ft 440 kts
2026-04-25 11:56 56.46346 13.64475 28339 ft 443 kts
2026-04-25 11:57 56.49296 13.66162 28673 ft 446 kts
2026-04-25 11:57 56.52263 13.67868 28972 ft 448 kts
2026-04-25 11:57 56.55234 13.69582 29343 ft 449 kts
2026-04-25 11:57 56.57213 13.70727 29646 ft 449 kts
2026-04-25 11:58 56.60183 13.72448 30053 ft 449 kts
2026-04-25 11:58 56.63156 13.74175 30518 ft 448 kts
2026-04-25 11:58 56.66130 13.75898 30877 ft 449 kts
2026-04-25 11:58 56.69101 13.77619 31298 ft 448 kts
2026-04-25 11:59 56.72068 13.79338 31741 ft 447 kts
2026-04-25 11:59 56.75028 13.81011 32176 ft 441 kts
2026-04-25 11:59 56.77997 13.82046 32615 ft 429 kts 357°
2026-04-25 12:00 56.83908 13.83403 33475 ft 427 kts 358°
2026-04-25 12:00 56.86892 13.84098 33890 ft 426 kts 358°
2026-04-25 12:00 56.92781 13.85473 34532 ft 428 kts 359°
2026-04-25 12:01 56.95735 13.86160 34806 ft 429 kts 360°
2026-04-25 12:01 56.98693 13.86856 35086 ft 429 kts 360°
2026-04-25 12:01 57.01657 13.87557 35377 ft 429 kts
2026-04-25 12:01 57.04622 13.88260 35653 ft 430 kts
2026-04-25 12:02 57.10552 13.89648 36209 ft 430 kts
2026-04-25 12:02 57.13528 13.90343 36481 ft 430 kts
2026-04-25 12:02 57.16497 13.91038 36699 ft 433 kts
2026-04-25 12:03 57.22522 13.92461 36682 ft 439 kts
2026-04-25 12:03 57.28583 13.93914 36678 ft 439 kts
2026-04-25 12:04 57.34649 13.95385 36684 ft 440 kts
2026-04-25 12:04 57.40716 13.96842 36684 ft 440 kts
2026-04-25 12:05 57.46787 13.98297 36719 ft 440 kts
2026-04-25 12:05 57.52855 13.99747 36713 ft 440 kts
2026-04-25 12:06 57.58928 14.01213 36707 ft 440 kts
2026-04-25 12:06 57.65008 14.02698 36704 ft 440 kts
2026-04-25 12:07 57.71085 14.04174 36721 ft 440 kts
2026-04-25 12:07 57.77152 14.05646 36704 ft 439 kts
2026-04-25 12:08 57.83248 14.07141 36684 ft 439 kts
2026-04-25 12:08 57.89306 14.08647 36690 ft 439 kts
2026-04-25 12:09 57.95365 14.10150 36693 ft 439 kts
2026-04-25 12:09 58.01417 14.11653 36700 ft 439 kts
2026-04-25 12:10 58.07470 14.13156 36698 ft 439 kts
2026-04-25 12:10 58.13520 14.14661 36706 ft 438 kts
2026-04-25 12:11 58.19568 14.16149 36705 ft 438 kts
2026-04-25 12:11 58.25615 14.17670 36734 ft 439 kts
2026-04-25 12:12 58.30647 14.18944 36721 ft 439 kts
2026-04-25 12:12 58.37731 14.20763 36699 ft 439 kts
2026-04-25 12:13 58.43788 14.22294 36693 ft 439 kts
2026-04-25 12:13 58.49845 14.23852 36688 ft 439 kts
2026-04-25 12:14 58.55883 14.25717 36682 ft 443 kts 12°
2026-04-25 12:14 58.61448 14.31037 36670 ft 456 kts 33°
2026-04-25 12:15 58.63802 14.35194 36662 ft 464 kts 44°
2026-04-25 12:15 58.65885 14.39947 36661 ft 466 kts 45°
2026-04-25 12:15 58.70053 14.49627 36659 ft 467 kts 45°
2026-04-25 12:16 58.74194 14.59285 36658 ft 468 kts 45°
2026-04-25 12:16 58.78336 14.68979 36676 ft 471 kts 46°
2026-04-25 12:17 58.82504 14.78756 36660 ft 472 kts 46°
2026-04-25 12:17 58.86674 14.88561 36645 ft 473 kts 46°
2026-04-25 12:18 58.90833 14.98423 36644 ft 473 kts 46°
2026-04-25 12:18 58.94993 15.08313 36646 ft 474 kts 46°
2026-04-25 12:19 59.01232 15.23189 36675 ft 474 kts 46°
2026-04-25 12:20 59.05387 15.33149 36663 ft 474 kts 46°
2026-04-25 12:20 59.09519 15.43132 36333 ft 473 kts 46°
2026-04-25 12:20 59.11570 15.48111 35839 ft 470 kts 46°
2026-04-25 12:21 59.13607 15.53050 35421 ft 466 kts 46°
2026-04-25 12:21 59.15629 15.57967 34962 ft 463 kts 46°
2026-04-25 12:21 59.17633 15.62854 34539 ft 460 kts 46°
2026-04-25 12:21 59.19621 15.67715 34148 ft 456 kts 46°
2026-04-25 12:22 59.21597 15.72550 33643 ft 456 kts 46°
2026-04-25 12:22 59.23560 15.77358 33303 ft 450 kts 47°
2026-04-25 12:22 59.25525 15.82188 32850 ft 446 kts 47°
2026-04-25 12:22 59.27445 15.86915 32396 ft 442 kts 46°
2026-04-25 12:23 59.29326 15.91558 31958 ft 439 kts 46°
2026-04-25 12:23 59.31232 15.96276 31521 ft 436 kts 46°
2026-04-25 12:23 59.33100 16.00919 31094 ft 432 kts 46°
2026-04-25 12:23 59.34954 16.05532 30678 ft 429 kts 46°
2026-04-25 12:24 59.36796 16.10114 30277 ft 426 kts 46°
2026-04-25 12:24 59.38626 16.14665 29890 ft 423 kts 46°
2026-04-25 12:24 59.40436 16.19172 29316 ft 418 kts 46°
2026-04-25 12:24 59.42230 16.23639 28491 ft 413 kts 46°
2026-04-25 12:25 59.43995 16.28050 27728 ft 408 kts 46°
2026-04-25 12:25 59.45732 16.32412 27063 ft 402 kts 46°
2026-04-25 12:25 59.47439 16.36717 26402 ft 396 kts 46°
2026-04-25 12:25 59.49119 16.40965 25731 ft 391 kts 46°
2026-04-25 12:26 59.50777 16.45155 25049 ft 385 kts 46°
2026-04-25 12:26 59.52418 16.49293 24332 ft 382 kts 46°
2026-04-25 12:26 59.54046 16.53412 23656 ft 378 kts 46°
2026-04-25 12:26 59.55637 16.57457 23096 ft 370 kts 46°
2026-04-25 12:27 59.57192 16.61432 22373 ft 363 kts 46°
2026-04-25 12:27 59.58826 16.65125 21650 ft 350 kts 36°
2026-04-25 12:27 59.60710 16.68030 20943 ft 339 kts 28°
2026-04-25 12:27 59.62620 16.70703 20250 ft 335 kts 28°
2026-04-25 12:28 59.64499 16.73363 19582 ft 330 kts 28°
2026-04-25 12:28 59.66352 16.75999 18931 ft 325 kts 28°
2026-04-25 12:28 59.68174 16.78598 18330 ft 321 kts 29°
2026-04-25 12:28 59.69971 16.81157 17672 ft 316 kts 29°
2026-04-25 12:29 59.71749 16.83689 16968 ft 312 kts 29°
2026-04-25 12:29 59.73497 16.86180 16285 ft 308 kts 30°
2026-04-25 12:29 59.75224 16.88643 15609 ft 304 kts 30°
2026-04-25 12:29 59.76927 16.91078 14958 ft 300 kts 30°
2026-04-25 12:30 59.78615 16.93499 14673 ft 297 kts 30°
2026-04-25 12:30 59.79695 16.95235 14624 ft 301 kts 40°
2026-04-25 12:30 59.80895 16.98745 14643 ft 313 kts 63°
2026-04-25 12:30 59.81350 17.03020 14653 ft 323 kts 87°
2026-04-25 12:31 59.80950 17.07424 14609 ft 328 kts 107°
2026-04-25 12:31 59.80172 17.11672 14266 ft 327 kts 112°
2026-04-25 12:31 59.78959 17.15494 13953 ft 327 kts 131°
2026-04-25 12:31 59.77261 17.18463 13565 ft 326 kts 148°
2026-04-25 12:32 59.75225 17.20418 13149 ft 324 kts 162°
2026-04-25 12:32 59.73115 17.21943 12741 ft 323 kts 162°
2026-04-25 12:32 59.71008 17.23470 12371 ft 322 kts 162°
2026-04-25 12:32 59.68896 17.25007 11711 ft 330 kts 163°
2026-04-25 12:33 59.66693 17.26639 10751 ft 346 kts 161°
2026-04-25 12:33 59.64391 17.28326 9953 ft 357 kts 161°
2026-04-25 12:33 59.62085 17.29989 9702 ft 348 kts 161°
2026-04-25 12:33 59.59848 17.31596 9537 ft 336 kts 162°
2026-04-25 12:34 59.57700 17.33201 9390 ft 325 kts 161°
2026-04-25 12:34 59.55618 17.34780 9073 ft 310 kts 161°
2026-04-25 12:34 59.53618 17.36290 8467 ft 305 kts 161°
2026-04-25 12:34 59.52308 17.37265 8055 ft 304 kts 161°
2026-04-25 12:35 59.49670 17.39196 7218 ft 300 kts 159°
2026-04-25 12:35 59.47923 17.41333 6713 ft 293 kts 136°
2026-04-25 12:35 59.46465 17.44132 6584 ft 294 kts 132°
2026-04-25 12:35 59.45033 17.46992 6596 ft 286 kts 133°
2026-04-25 12:36 59.43674 17.49725 6604 ft 277 kts 132°
2026-04-25 12:36 59.42329 17.52422 6384 ft 276 kts 133°
2026-04-25 12:36 59.40984 17.55099 6094 ft 275 kts 133°
2026-04-25 12:36 59.39655 17.57731 5951 ft 268 kts 132°
2026-04-25 12:37 59.38350 17.60291 5697 ft 264 kts 132°
2026-04-25 12:37 59.37045 17.62821 5374 ft 264 kts 133°
2026-04-25 12:37 59.35779 17.65383 5135 ft 257 kts 122°
2026-04-25 12:37 59.35043 17.68434 4961 ft 242 kts 101°
2026-04-25 12:38 59.34617 17.71585 4711 ft 238 kts 98°
2026-04-25 12:38 59.34222 17.74729 4379 ft 237 kts 98°
2026-04-25 12:38 59.33946 17.77864 4078 ft 227 kts 79°
2026-04-25 12:38 59.34401 17.80654 3964 ft 212 kts 51°
2026-04-25 12:39 59.35191 17.83066 3966 ft 210 kts 46°
2026-04-25 12:39 59.36212 17.84993 3980 ft 201 kts 26°
2026-04-25 12:39 59.37468 17.86026 3974 ft 192 kts
2026-04-25 12:39 59.38793 17.86501 3971 ft 195 kts
2026-04-25 12:40 59.40112 17.86973 3966 ft 183 kts
2026-04-25 12:40 59.41322 17.87407 3969 ft 172 kts
2026-04-25 12:40 59.42480 17.87820 3973 ft 170 kts
2026-04-25 12:40 59.43544 17.88200 3967 ft 168 kts
2026-04-25 12:41 59.44684 17.88607 3826 ft 169 kts
2026-04-25 12:41 59.45835 17.89019 3633 ft 168 kts
2026-04-25 12:41 59.46985 17.89431 3414 ft 168 kts
2026-04-25 12:41 59.48131 17.89843 3178 ft 167 kts
2026-04-25 12:42 59.49270 17.90252 2947 ft 165 kts
2026-04-25 12:42 59.50020 17.90522 2797 ft 164 kts
2026-04-25 12:42 59.51502 17.91055 2492 ft 160 kts
2026-04-25 12:42 59.52588 17.91445 2268 ft 159 kts
2026-04-25 12:43 59.53659 17.91831 2078 ft 152 kts
2026-04-25 12:43 59.54666 17.92196 1843 ft 141 kts
2026-04-25 12:43 59.56457 17.92841 1483 ft 126 kts
2026-04-25 12:44 59.57312 17.93149 1298 ft 126 kts
2026-04-25 12:44 59.58158 17.93454 1108 ft 125 kts
2026-04-25 12:44 59.59859 17.94070 770 ft 124 kts
2026-04-25 12:45 59.60704 17.94375 596 ft 122 kts
2026-04-25 12:45 59.61558 17.94685 420 ft 127 kts
2026-04-25 12:45 59.63245 17.95288 145 ft 109 kts
2026-04-25 12:46 59.63816 17.95502 145 ft 58 kts 11°
2026-04-25 12:46 59.64099 17.95605 145 ft 36 kts
2026-04-25 12:46 59.64332 17.95688 145 ft 31 kts
2026-04-25 12:46 59.64511 17.95675 142 ft 22 kts 346°
2026-04-25 12:47 59.64624 17.95598 139 ft 15 kts 346°
2026-04-25 12:47 59.64681 17.95565 138 ft 0 kts 341°
2026-04-25 12:48 59.64687 17.95561 138 ft 4 kts 341°
2026-04-25 12:48 59.64727 17.95532 138 ft 8 kts 340°
2026-04-25 12:48 59.64790 17.95486 138 ft 11 kts 339°
2026-04-25 12:48 59.64874 17.95478 138 ft 14 kts 11°
2026-04-25 12:49 59.64975 17.95517 138 ft 16 kts 11°
2026-04-25 12:49 59.65078 17.95506 138 ft 14 kts 321°
2026-04-25 12:49 59.65177 17.95443 138 ft 16 kts 346°
2026-04-25 12:49 59.65293 17.95385 138 ft 18 kts 346°
2026-04-25 12:50 59.65423 17.95318 138 ft 20 kts 344°
2026-04-25 12:50 59.65551 17.95249 138 ft 19 kts 345°
2026-04-25 12:50 59.65660 17.95190 138 ft 15 kts 345°
2026-04-25 12:50 59.65743 17.95101 138 ft 15 kts 303°
2026-04-25 12:51 59.65732 17.94884 138 ft 18 kts 256°
2026-04-25 12:51 59.65701 17.94632 138 ft 18 kts 255°
2026-04-25 12:51 59.65667 17.94382 138 ft 17 kts 256°
2026-04-25 12:51 59.65639 17.94148 138 ft 19 kts 256°
2026-04-25 12:52 59.65612 17.93931 138 ft 12 kts 254°
2026-04-25 12:52 59.65545 17.93876 138 ft 13 kts 164°
2026-04-25 12:52 59.65453 17.93925 138 ft 15 kts 166°
2026-04-25 12:52 59.65386 17.93958 138 ft 5 kts 166°
2026-04-25 12:53 59.65361 17.93920 138 ft 8 kts 253°
2026-04-25 12:53 59.65347 17.93820 138 ft 3 kts 255°
2026-04-25 12:53 59.65344 17.93801 138 ft 0 kts 255°
2026-04-25 12:56 59.65344 17.93800 138 ft 0 kts 255°